Weather History for Eureka, NU

Change the Weather History Date:

Monday, April 8, 2013

  Actual Average Record
Temperature  
Mean Temperature -11 °F -  
Max Temperature 0 °F -3 °F 14 °F (2007)
Min Temperature -20 °F -17 °F -44 °F (2014)
Degree Days  
Heating Degree Days 76    
Moisture  
Dew Point -22 °F    
Average Humidity 58    
Maximum Humidity 65    
Minimum Humidity 43    
Precipitation  
Precipitation 0.00 in 0.00 in - ()
Sea Level Pressure  
Sea Level Pressure 30.23 in    
Wind  
Wind Speed 4 mph ()    
Max Wind Speed 10 mph    
Max Gust Speed -    
Visibility 15.0 miles    
Events Snow    
Averages and records for this station are not official NWS values.
T = Trace of Precipitation, MM = Missing Value Source: Averaged Metar Reports

Daily Weather History Graph

Daily Weather History Graph

Search for Another Location

Airport:

Trip Planner

Search our weather history database for the weather conditions in past years. The results will help you decide how hot, cold, wet, or windy it might be!

Date:

Astronomy

Apr. 08, 2013 Rise Set
Actual Time 3:08 AM CDT 10:34 PM CDT
Civil Twilight Sun does not rise Sun does not rise
Nautical Twilight Sun does not rise Sun does not rise
Astronomical Twilight Sun does not rise Sun does not rise
Moon 4:33 AM CDT (4/8) 7:21 PM CDT (4/8)
Length of Visible Light 24h 00m
Length of Day
19h 25m
Waning Crescent, 3% of the Moon is Illuminated
Apr 8
Waning Crescent
Apr 10
New
Apr 18
First Quarter
Apr 25
Full
May 2
Last Quarter

Hourly Weather History & Observations

Time (CDT) Temp. Windchill Dew Point Humidity Pressure Visibility Wind Dir Wind Speed Gust Speed Precip Events Conditions
1:00 AM -19 °F - -29 °F 44% 30.27 in 15 mi SE 9.2 mph - -   Clear
1:00 AM -18.4 °F -39.1 °F -29.2 °F 58% 30.27 in 15.0 mi SE 10.4 mph - N/A   Scattered Clouds
2:00 AM -18.4 °F - -29.2 °F 58% 30.27 in 15.0 mi Calm Calm - N/A   Partly Cloudy
3:00 AM -20.2 °F -33.5 °F -31.0 °F 58% 30.27 in 15.0 mi East 4.6 mph - N/A   Partly Cloudy
4:00 AM -20.2 °F -40.1 °F -31.0 °F 58% 30.27 in 15.0 mi ENE 9.2 mph - N/A   Mostly Cloudy
5:00 AM -20.2 °F - -29.2 °F 63% 30.26 in 15.0 mi Calm Calm - N/A   Mostly Cloudy
6:00 AM -16.6 °F -26.8 °F -27.4 °F 58% 30.26 in 15.0 mi South 3.5 mph - N/A   Overcast
7:00 AM -17 °F - -27 °F 44% 30.25 in 15 mi NE 3.5 mph - -   Overcast
7:00 AM -16.6 °F -26.8 °F -27.4 °F 58% 30.25 in 15.0 mi NE 3.5 mph - N/A   Overcast
8:00 AM -18.4 °F -33.4 °F -27.4 °F 63% 30.24 in 15.0 mi SE 5.8 mph - N/A   Mostly Cloudy
9:00 AM -18.4 °F -28.9 °F -27.4 °F 63% 30.23 in 15.0 mi ESE 3.5 mph - N/A   Scattered Clouds
10:00 AM -13.0 °F -25.1 °F -23.8 °F 59% 30.23 in 15.0 mi East 4.6 mph - N/A   Partly Cloudy
11:00 AM -11.2 °F -23.0 °F -22.0 °F 59% 30.22 in 15.0 mi East 4.6 mph - N/A   Partly Cloudy
12:00 PM -11.2 °F - -20.2 °F 64% 30.21 in 15.0 mi NE 2.3 mph - N/A   Mostly Cloudy
1:00 PM -8 °F - -19 °F 43% 30.21 in 15 mi Calm Calm - -   Scattered Clouds
1:00 PM -7.6 °F - -18.4 °F 59% 30.21 in 15.0 mi Calm Calm - N/A   Mostly Cloudy
2:00 PM -9.4 °F - -20.2 °F 59% 30.20 in 15.0 mi ENE 2.3 mph - N/A   Mostly Cloudy
3:00 PM -9.4 °F - -18.4 °F 65% 30.20 in 15.0 mi Calm Calm - N/A   Overcast
4:00 PM -7.6 °F -16.5 °F -16.6 °F 65% 30.21 in 15.0 mi South 3.5 mph - N/A   Overcast
5:00 PM -5.8 °F -14.5 °F -14.8 °F 65% 30.20 in 15.0 mi SSE 3.5 mph - N/A   Overcast
6:00 PM -4.0 °F -12.4 °F -14.8 °F 60% 30.19 in 15.0 mi SE 3.5 mph - N/A   Overcast
6:10 PM - - - N/A% - 15.0 mi East 3.5 mph - N/A   Unknown
6:50 PM - - - N/A% - 15.0 mi ESE 5.8 mph - N/A   Mostly Cloudy
7:00 PM -3 °F - -14 °F 43% 30.19 in 15 mi SE 4.6 mph - - Snow Light Snow
7:00 PM -2.2 °F -12.5 °F -13.0 °F 60% 30.19 in 15.0 mi SSE 4.6 mph - N/A   Mostly Cloudy
8:00 PM -5.8 °F -19.9 °F -16.6 °F 60% 30.18 in 15.0 mi SE 6.9 mph - N/A   Mostly Cloudy
9:00 PM -2.2 °F -14.2 °F -13.0 °F 60% 30.19 in 15.0 mi SE 5.8 mph - N/A   Mostly Cloudy
10:00 PM -0.4 °F -13.4 °F -11.2 °F 60% 30.19 in 15.0 mi SE 6.9 mph - N/A   Mostly Cloudy